This is the latest recevied weather packets stored in our database for station/object K4AGR-13. If no packets are shown the sender has not sent any weather packets the latest 10 day(s).
| Time | Temp. | Humidity | Pressure | Rain* | Wind** | Luminosity | Snow |
|---|---|---|---|---|---|---|---|
| 1777681250 | 15° C | 85% | 1012 hPa | 0 mm | - | 0 W/m² | - |
| 1777680948 | 15.56° C | 83% | 1011.8 hPa | 1.27 mm | - | 1 W/m² | - |
| 1777680645 | 15.56° C | 90% | 1011.6 hPa | 8.89 mm | - | 1 W/m² | - |
| 1777680343 | 16.11° C | 93% | 1011.9 hPa | 8.89 mm | - | 2 W/m² | - |
| 1777680040 | 16.11° C | 93% | 1011.8 hPa | 3.05 mm | - | 2 W/m² | - |
| 1777679736 | 16.11° C | 93% | 1011.8 hPa | 1.78 mm | - | 2 W/m² | - |
| 1777679432 | 16.11° C | 93% | 1011.8 hPa | 0 mm | - | 4 W/m² | - |
| 1777679127 | 16.11° C | 92% | 1011.7 hPa | 0 mm | - | 7 W/m² | - |
| 1777678826 | 16.11° C | 92% | 1011.6 hPa | 1.78 mm | - | 10 W/m² | - |
| 1777678524 | 16.11° C | 93% | 1011.3 hPa | 3.05 mm | - | 22 W/m² | - |
| 1777678220 | 16.11° C | 92% | 1011.7 hPa | 1.27 mm | - | 18 W/m² | - |
| 1777677916 | 16.67° C | 92% | 1011.6 hPa | 3.05 mm | - | 23 W/m² | - |
| 1777677614 | 16.67° C | 92% | 1012.2 hPa | 3.05 mm | - | 9 W/m² | - |
| 1777677312 | 16.67° C | 92% | 1012.5 hPa | 1.78 mm | - | 7 W/m² | - |
| 1777677010 | 16.67° C | 92% | 1012 hPa | 1.78 mm | - | 6 W/m² | - |
| 1777676709 | 16.67° C | 92% | 1011.7 hPa | 0 mm | - | 10 W/m² | - |
| 1777676406 | 16.67° C | 92% | 1011.4 hPa | 0 mm | - | 28 W/m² | - |
| 1777676103 | 16.67° C | 91% | 1010.9 hPa | 0 mm | - | 31 W/m² | - |
| 1777675799 | 16.67° C | 91% | 1011 hPa | 1.27 mm | - | 33 W/m² | - |
| 1777675497 | 16.67° C | 90% | 1011.7 hPa | 1.27 mm | - | 31 W/m² | - |
| 1777675193 | 16.67° C | 90% | 1012.1 hPa | 0 mm | - | 40 W/m² | - |
| 1777674890 | 16.67° C | 90% | 1012.3 hPa | 0 mm | - | 21 W/m² | - |
| 1777674585 | 16.67° C | 90% | 1012.2 hPa | 0 mm | - | 24 W/m² | - |
| 1777674284 | 16.67° C | 90% | 1011.8 hPa | 0 mm | - | 73 W/m² | - |
| 1777673979 | 16.67° C | 91% | 1012 hPa | 0 mm | - | 82 W/m² | - |
* Rain latest hour (hover to see other rain measurements)
** Current wind speed in m/s (hover to see current wind gust speed)